BAW78 DGAA-EGLL

Flight info

Callsign BAW78
Flight time N/A
Altitude 39000
Route LITEX1D LITEX DCT KILMO DCT TATAT DCT IPUTA DCT ABALA DCT MIGNI DCT EREBO/N0476F400 UA604 TMS UA615 GHA/N0476F410 UB726 KAHIL UZ333 ZEM/N0469F400 UB16 PECES DCT MAMOM DCT ELTAN DCT MHN DCT MEROS DCT LAPIT DCT CHELY DCT LUMAS DCT SOFFY DCT MRM DCT MTL DCT ETREK DCT MADOT DCT MOPEM DCT CACHI DCT AVLON DCT OKRIX DCT BRY/N0455F360 DCT CLM DCT KOPOR DCT ABNUR DCT DIMAL DCT ALESO
Aircraft B772/H-SDE2E3FGHIJ5LORVWXY/LB1D1

Departure

Time 2026-05-01 09:25
Airport Kotoka International Airport (DGAA)

Arrival

Time N/A
Airport London Heathrow Airport (EGLL)
Time Latitude Longitude Altitude Speed Heading
2026-05-01 08:36 5.60221 -0.17162 216 ft 0 kts 292°
2026-05-01 09:16 5.60216 -0.17149 224 ft 4 kts 292°
2026-05-01 09:16 5.60206 -0.17125 218 ft 4 kts 292°
2026-05-01 09:16 5.60194 -0.17102 221 ft 4 kts 310°
2026-05-01 09:17 5.60153 -0.17084 215 ft 4 kts 14°
2026-05-01 09:17 5.60128 -0.17093 224 ft 4 kts 25°
2026-05-01 09:17 5.60115 -0.17099 217 ft 0 kts 22°
2026-05-01 09:20 5.60185 -0.17069 221 ft 12 kts 22°
2026-05-01 09:20 5.60336 -0.17007 223 ft 12 kts 22°
2026-05-01 09:21 5.60488 -0.16945 226 ft 12 kts 22°
2026-05-01 09:21 5.60563 -0.16913 228 ft 12 kts 22°
2026-05-01 09:21 5.60715 -0.16851 231 ft 12 kts 22°
2026-05-01 09:22 5.60919 -0.16766 227 ft 20 kts 22°
2026-05-01 09:22 5.61202 -0.16650 226 ft 22 kts 22°
2026-05-01 09:23 5.61344 -0.16591 226 ft 22 kts 22°
2026-05-01 09:23 5.61595 -0.16484 221 ft 14 kts 35°
2026-05-01 09:24 5.61584 -0.16316 218 ft 7 kts 111°
2026-05-01 09:24 5.61557 -0.16292 223 ft 3 kts 183°
2026-05-01 09:24 5.61249 -0.16422 227 ft 78 kts 202°
2026-05-01 09:25 5.59445 -0.17168 593 ft 174 kts 200°
2026-05-01 09:25 5.57142 -0.18059 2112 ft 179 kts 194°
2026-05-01 09:26 5.55919 -0.17940 2661 ft 185 kts 147°
2026-05-01 09:26 5.55293 -0.15622 3823 ft 193 kts 73°
2026-05-01 09:26 5.55726 -0.14248 4067 ft 219 kts 73°
2026-05-01 09:27 5.56683 -0.10989 4699 ft 258 kts 73°
2026-05-01 09:27 5.57470 -0.09367 5225 ft 264 kts 49°
2026-05-01 09:27 5.58955 -0.08286 5938 ft 265 kts 27°
2026-05-01 09:28 5.60673 -0.07568 6573 ft 269 kts 25°
2026-05-01 09:28 5.62426 -0.06858 6983 ft 284 kts 25°
2026-05-01 09:28 5.64329 -0.06086 7140 ft 306 kts 25°
2026-05-01 09:28 5.66363 -0.05262 7454 ft 320 kts 25°
2026-05-01 09:29 5.70576 -0.03540 8651 ft 330 kts 25°
2026-05-01 09:29 5.72707 -0.02665 9364 ft 331 kts 26°
2026-05-01 09:30 5.77010 -0.00893 10638 ft 339 kts 26°
2026-05-01 09:30 5.79206 0.00012 11261 ft 344 kts 26°
2026-05-01 09:30 5.83699 0.01864 12750 ft 353 kts 26°
2026-05-01 09:31 5.85989 0.02807 13486 ft 359 kts 25°
2026-05-01 09:31 5.88289 0.03755 14171 ft 365 kts 25°
2026-05-01 09:31 5.93045 0.05673 15514 ft 371 kts 20°
2026-05-01 09:32 5.95653 0.05997 16042 ft 387 kts 359°
2026-05-01 09:32 6.00988 0.04809 17204 ft 399 kts 348°
2026-05-01 09:32 6.03697 0.04120 17907 ft 402 kts 348°
2026-05-01 09:33 6.06420 0.03429 18551 ft 405 kts 348°
2026-05-01 09:33 6.09172 0.02739 19131 ft 409 kts 348°
2026-05-01 09:33 6.14742 0.01363 20231 ft 416 kts 348°
2026-05-01 09:34 6.17568 0.00671 20781 ft 420 kts 348°
2026-05-01 09:34 6.20417 -0.00025 21319 ft 423 kts 348°
2026-05-01 09:34 6.26184 -0.01433 22368 ft 429 kts 348°
2026-05-01 09:35 6.29064 -0.02136 22845 ft 433 kts 348°
2026-05-01 09:35 6.34962 -0.03576 23778 ft 439 kts 348°
2026-05-01 09:35 6.37951 -0.04306 24181 ft 442 kts 348°
2026-05-01 09:36 6.40947 -0.05038 24571 ft 445 kts 348°
2026-05-01 09:36 6.43965 -0.05775 24970 ft 448 kts 348°
2026-05-01 09:36 6.47006 -0.06518 25365 ft 451 kts 348°
2026-05-01 09:36 6.50066 -0.07266 25763 ft 454 kts 348°
2026-05-01 09:37 6.53148 -0.08019 26155 ft 457 kts 348°
2026-05-01 09:37 6.59375 -0.09542 26946 ft 463 kts 348°
2026-05-01 09:37 6.62527 -0.10153 27220 ft 462 kts 358°
2026-05-01 09:38 6.68725 -0.08838 27778 ft 462 kts 24°
2026-05-01 09:38 6.71762 -0.07615 28118 ft 466 kts 24°
2026-05-01 09:38 6.74748 -0.06414 28493 ft 469 kts 24°
2026-05-01 09:39 6.80848 -0.03996 29294 ft 474 kts 23°
2026-05-01 09:39 6.83935 -0.02790 29665 ft 477 kts 23°
2026-05-01 09:39 6.87042 -0.01584 30028 ft 480 kts 23°
2026-05-01 09:40 6.90175 -0.00373 30342 ft 483 kts 23°
2026-05-01 09:40 6.96469 0.02056 31070 ft 485 kts 22°
2026-05-01 09:40 6.99632 0.03277 31426 ft 486 kts 22°
2026-05-01 09:41 7.02797 0.04499 31751 ft 488 kts 22°
2026-05-01 09:41 7.09153 0.06956 32342 ft 491 kts 22°
2026-05-01 09:41 7.12355 0.08195 32624 ft 493 kts 22°
2026-05-01 09:42 7.15564 0.09436 32904 ft 494 kts 22°
2026-05-01 09:42 7.18777 0.10679 33195 ft 495 kts 22°
2026-05-01 09:42 7.25141 0.13141 33983 ft 491 kts 22°
2026-05-01 09:43 7.31493 0.15599 34679 ft 487 kts 22°
2026-05-01 09:43 7.34662 0.16826 34990 ft 486 kts 22°
2026-05-01 09:43 7.37817 0.18048 35306 ft 485 kts 22°
2026-05-01 09:44 7.44096 0.20480 35962 ft 482 kts 22°
2026-05-01 09:44 7.47228 0.21693 36278 ft 481 kts 22°
2026-05-01 09:44 7.50352 0.22904 36572 ft 480 kts 22°
2026-05-01 09:45 7.53473 0.24113 36891 ft 479 kts 22°
2026-05-01 09:45 7.59641 0.26504 37480 ft 477 kts 22°
2026-05-01 09:45 7.62738 0.27705 37771 ft 476 kts 22°
2026-05-01 09:46 7.65825 0.28902 38042 ft 475 kts 22°
2026-05-01 09:46 7.68910 0.30098 38298 ft 474 kts 22°
2026-05-01 09:46 7.71987 0.31292 38568 ft 473 kts 22°
2026-05-01 09:46 7.75061 0.32484 38782 ft 473 kts 22°
2026-05-01 09:47 7.81231 0.34879 38908 ft 477 kts 22°
2026-05-01 09:47 7.87452 0.37295 38923 ft 479 kts 22°
2026-05-01 09:48 7.93630 0.39693 38926 ft 472 kts 22°
2026-05-01 09:48 7.99711 0.42054 38938 ft 470 kts 22°
2026-05-01 09:49 8.04822 0.44040 38933 ft 469 kts 22°
2026-05-01 09:49 8.11905 0.46793 38937 ft 469 kts 22°
2026-05-01 09:50 8.16976 0.48765 38943 ft 470 kts 22°
2026-05-01 09:50 8.23091 0.51143 38941 ft 471 kts 22°
2026-05-01 09:51 8.29222 0.53528 38942 ft 473 kts 22°
2026-05-01 09:51 8.35378 0.55924 38941 ft 474 kts 22°
2026-05-01 09:52 8.41545 0.58325 38937 ft 476 kts 22°
2026-05-01 09:52 8.47729 0.60733 38937 ft 476 kts 22°
2026-05-01 09:53 8.53914 0.63142 38938 ft 476 kts 22°
2026-05-01 09:53 8.60102 0.65553 38935 ft 477 kts 22°
2026-05-01 09:54 8.66298 0.67969 38930 ft 477 kts 22°
2026-05-01 09:54 8.72493 0.70385 38928 ft 478 kts 22°
2026-05-01 09:55 8.78701 0.72807 38927 ft 477 kts 22°
2026-05-01 09:55 8.84896 0.75226 38930 ft 477 kts 22°
2026-05-01 09:56 8.91084 0.77640 38927 ft 476 kts 22°
2026-05-01 09:56 8.97269 0.80055 38930 ft 476 kts 22°
2026-05-01 09:57 9.03450 0.82470 38932 ft 476 kts 22°
2026-05-01 09:57 9.09605 0.84876 38928 ft 477 kts 22°
2026-05-01 09:58 9.15796 0.87297 38926 ft 477 kts 22°
2026-05-01 09:58 9.21997 0.89723 38927 ft 477 kts 22°
2026-05-01 09:59 9.28194 0.92147 38929 ft 478 kts 22°
2026-05-01 09:59 9.34361 0.94562 38928 ft 478 kts 22°
2026-05-01 10:00 9.40571 0.96993 38926 ft 478 kts 22°
2026-05-01 10:00 9.46560 0.99881 38948 ft 476 kts 32°
2026-05-01 10:01 9.51921 1.03795 38958 ft 475 kts 40°
2026-05-01 10:01 9.57013 1.08065 38980 ft 475 kts 41°
2026-05-01 10:02 9.62108 1.12348 38982 ft 475 kts 40°
2026-05-01 10:02 9.67183 1.16578 39001 ft 474 kts 40°
2026-05-01 10:03 9.72286 1.20810 39018 ft 474 kts 40°
2026-05-01 10:03 9.77393 1.25044 39004 ft 474 kts 40°
2026-05-01 10:04 9.82491 1.29273 38980 ft 474 kts 40°
2026-05-01 10:04 9.87595 1.33510 38962 ft 474 kts 40°
2026-05-01 10:05 9.92692 1.37743 38934 ft 474 kts 40°
2026-05-01 10:05 9.97801 1.41989 38920 ft 474 kts 40°
2026-05-01 10:06 10.02883 1.46213 38928 ft 475 kts 40°
2026-05-01 10:06 10.07997 1.50466 38925 ft 475 kts 40°
2026-05-01 10:07 10.13114 1.54723 38928 ft 476 kts 40°
2026-05-01 10:07 10.18238 1.58988 38925 ft 476 kts 40°
2026-05-01 10:08 10.25927 1.65391 38928 ft 477 kts 40°
2026-05-01 10:09 10.31022 1.69636 38932 ft 477 kts 40°
2026-05-01 10:09 10.36154 1.73914 38922 ft 477 kts 40°
2026-05-01 10:10 10.41285 1.78193 38929 ft 477 kts 40°
2026-05-01 10:10 10.48983 1.84616 38921 ft 477 kts 40°
2026-05-01 10:11 10.54120 1.88906 38924 ft 477 kts 40°
2026-05-01 10:11 10.59227 1.93170 38919 ft 478 kts 40°
2026-05-01 10:12 10.64367 1.97465 38919 ft 478 kts 40°
2026-05-01 10:13 10.72069 2.03906 38926 ft 478 kts 40°
2026-05-01 10:13 10.77212 2.08209 38913 ft 478 kts 40°
2026-05-01 10:14 10.84887 2.14633 38918 ft 478 kts 40°
2026-05-01 10:14 10.90025 2.18937 38916 ft 478 kts 40°
2026-05-01 10:15 10.95166 2.23245 38911 ft 478 kts 40°
2026-05-01 10:15 11.00457 2.27270 38912 ft 479 kts 33°
2026-05-01 10:16 11.06410 2.30345 38911 ft 480 kts 25°
2026-05-01 10:17 11.15606 2.34448 38903 ft 481 kts 25°
2026-05-01 10:17 11.24791 2.38599 38907 ft 481 kts 25°
2026-05-01 10:18 11.33924 2.42771 38907 ft 482 kts 25°
2026-05-01 10:19 11.40047 2.45571 38902 ft 482 kts 25°
2026-05-01 10:19 11.46172 2.48372 38901 ft 482 kts 25°
2026-05-01 10:20 11.55358 2.52574 38904 ft 482 kts 25°
2026-05-01 10:20 11.61447 2.55363 38908 ft 483 kts 25°
2026-05-01 10:21 11.70645 2.59573 38903 ft 483 kts 25°
2026-05-01 10:22 11.79855 2.63795 38893 ft 484 kts 25°
2026-05-01 10:23 11.89068 2.68022 38892 ft 484 kts 25°
2026-05-01 10:23 11.98283 2.72251 38892 ft 484 kts 25°
2026-05-01 10:24 12.10540 2.77882 38892 ft 485 kts 25°
2026-05-01 10:25 12.22860 2.83548 38888 ft 485 kts 25°
2026-05-01 10:26 12.29018 2.86382 38889 ft 485 kts 25°
2026-05-01 10:27 12.41272 2.92024 38890 ft 484 kts 25°
2026-05-01 10:28 12.50499 2.96279 38887 ft 484 kts 25°
2026-05-01 10:28 12.59715 3.00531 38890 ft 484 kts 25°
2026-05-01 10:29 12.68943 3.04793 38892 ft 484 kts 25°
2026-05-01 10:30 12.81182 3.10448 38887 ft 483 kts 25°
2026-05-01 10:31 12.93449 3.16124 38889 ft 483 kts 25°
2026-05-01 10:32 13.02598 3.20362 38894 ft 482 kts 24°
2026-05-01 10:33 13.14854 3.26043 38884 ft 483 kts 24°
2026-05-01 10:34 13.24058 3.30314 38887 ft 484 kts 24°
2026-05-01 10:34 13.30162 3.33147 38893 ft 485 kts 24°
2026-05-01 10:35 13.39396 3.37439 38887 ft 485 kts 24°
2026-05-01 10:35 13.45558 3.40305 38892 ft 486 kts 24°
2026-05-01 10:36 13.54773 3.44593 38885 ft 487 kts 24°
2026-05-01 10:37 13.60977 3.47416 38884 ft 487 kts 23°
2026-05-01 10:37 13.69263 3.51113 38882 ft 488 kts 23°
2026-05-01 10:38 13.75493 3.53903 38887 ft 488 kts 23°
2026-05-01 10:38 13.81719 3.56700 38885 ft 489 kts 23°
2026-05-01 10:39 13.87951 3.59507 38888 ft 489 kts 23°
2026-05-01 10:39 13.94150 3.62300 38880 ft 489 kts 23°
2026-05-01 10:40 14.00385 3.65110 38884 ft 489 kts 23°
2026-05-01 10:40 14.06631 3.67926 38888 ft 490 kts 23°
2026-05-01 10:41 14.12872 3.70742 38887 ft 490 kts 23°
2026-05-01 10:42 14.22242 3.74972 38889 ft 490 kts 22°
2026-05-01 10:42 14.28493 3.77796 38884 ft 490 kts 22°
2026-05-01 10:43 14.34735 3.80619 38892 ft 489 kts 23°
2026-05-01 10:43 14.40929 3.83421 38889 ft 489 kts 22°
2026-05-01 10:44 14.47177 3.86249 38882 ft 489 kts 22°
2026-05-01 10:44 14.53418 3.89076 38890 ft 489 kts 22°
2026-05-01 10:45 14.59656 3.91903 38891 ft 489 kts 22°
2026-05-01 10:45 14.65849 3.94712 38892 ft 489 kts 22°
2026-05-01 10:46 14.72077 3.97538 38888 ft 489 kts 22°
2026-05-01 10:46 14.78303 4.00366 38894 ft 488 kts 22°
2026-05-01 10:47 14.84531 4.03196 38895 ft 488 kts 22°
2026-05-01 10:47 14.90753 4.06024 38872 ft 488 kts 22°
2026-05-01 10:48 14.96988 4.08861 38888 ft 490 kts 22°
2026-05-01 10:48 15.03245 4.11709 38897 ft 492 kts 22°
2026-05-01 10:49 15.09483 4.14550 38896 ft 494 kts 22°
2026-05-01 10:49 15.15791 4.17426 38903 ft 496 kts 22°
2026-05-01 10:50 15.22129 4.20317 38896 ft 498 kts 22°
2026-05-01 10:50 15.28469 4.23211 38898 ft 498 kts 22°
2026-05-01 10:51 15.34823 4.26113 38897 ft 499 kts 22°
2026-05-01 10:51 15.41174 4.29016 38894 ft 499 kts 22°
2026-05-01 10:52 15.47525 4.31921 38891 ft 498 kts 22°
2026-05-01 10:52 15.53831 4.34807 38897 ft 498 kts 22°
2026-05-01 10:53 15.60163 4.37707 38883 ft 497 kts 22°
2026-05-01 10:53 15.66493 4.40607 38891 ft 497 kts 22°
2026-05-01 10:54 15.72827 4.43512 38888 ft 497 kts 22°
2026-05-01 10:54 15.79150 4.46413 38883 ft 497 kts 22°
2026-05-01 10:55 15.85436 4.49301 38888 ft 497 kts 22°
2026-05-01 10:55 15.91762 4.52208 38884 ft 497 kts 22°
2026-05-01 10:56 15.98092 4.55119 38891 ft 498 kts 22°
2026-05-01 10:56 16.04430 4.58053 38889 ft 499 kts 24°
2026-05-01 10:57 16.10505 4.61572 38891 ft 501 kts 29°
2026-05-01 10:57 16.16469 4.65325 38882 ft 501 kts 29°
2026-05-01 10:58 16.22440 4.69078 38894 ft 501 kts 29°
2026-05-01 10:58 16.28431 4.72806 38898 ft 502 kts 29°
2026-05-01 10:59 16.34437 4.76527 38895 ft 502 kts 29°
2026-05-01 10:59 16.40400 4.80224 38897 ft 502 kts 29°
2026-05-01 11:00 16.46404 4.83951 38899 ft 502 kts 29°
2026-05-01 11:00 16.52410 4.87683 38898 ft 502 kts 29°
2026-05-01 11:01 16.58413 4.91417 38902 ft 502 kts 29°
2026-05-01 11:01 16.64375 4.95128 38894 ft 502 kts 29°
2026-05-01 11:02 16.70376 4.98865 38898 ft 502 kts 29°
2026-05-01 11:02 16.76368 5.02600 38903 ft 502 kts 29°
2026-05-01 11:03 16.82366 5.06341 38910 ft 502 kts 29°
2026-05-01 11:03 16.88363 5.10084 38904 ft 502 kts 29°
2026-05-01 11:04 16.94368 5.13835 38900 ft 502 kts 29°
2026-05-01 11:04 17.00332 5.17564 38901 ft 502 kts 29°
2026-05-01 11:05 17.06328 5.21315 38908 ft 502 kts 29°
2026-05-01 11:05 17.12335 5.25076 38892 ft 503 kts 29°
2026-05-01 11:06 17.18337 5.28837 38908 ft 503 kts 29°
2026-05-01 11:06 17.24346 5.32604 38905 ft 503 kts 29°
2026-05-01 11:07 17.33319 5.38237 38915 ft 503 kts 28°
2026-05-01 11:07 17.39329 5.42013 38898 ft 503 kts 28°
2026-05-01 11:08 17.45339 5.45791 38896 ft 503 kts 28°
2026-05-01 11:09 17.54351 5.51464 38902 ft 503 kts 28°
2026-05-01 11:09 17.60359 5.55248 38902 ft 504 kts 28°
2026-05-01 11:10 17.69342 5.60914 38902 ft 504 kts 28°
2026-05-01 11:10 17.75347 5.64706 38905 ft 504 kts 28°
2026-05-01 11:11 17.81384 5.68462 38905 ft 503 kts 25°
2026-05-01 11:11 17.87764 5.71370 38913 ft 499 kts 17°
2026-05-01 11:12 17.94285 5.73857 38909 ft 499 kts 17°
2026-05-01 11:12 18.00822 5.76352 38908 ft 499 kts 17°
2026-05-01 11:13 18.07308 5.78872 38908 ft 500 kts 17°
2026-05-01 11:13 18.13828 5.81428 38910 ft 500 kts 17°
2026-05-01 11:14 18.20355 5.83992 38916 ft 500 kts 17°
2026-05-01 11:14 18.26878 5.86555 38915 ft 500 kts 17°
2026-05-01 11:15 18.33405 5.89119 38915 ft 501 kts 17°
2026-05-01 11:15 18.39939 5.91688 38917 ft 501 kts 17°
2026-05-01 11:16 18.46438 5.94245 38916 ft 501 kts 17°
2026-05-01 11:16 18.52982 5.96821 38917 ft 501 kts 17°
2026-05-01 11:17 18.59516 5.99397 38915 ft 502 kts 16°
2026-05-01 11:17 18.66059 6.01978 38919 ft 502 kts 16°
2026-05-01 11:18 18.72571 6.04548 38922 ft 502 kts 16°
2026-05-01 11:18 18.79120 6.07136 38925 ft 503 kts 16°
2026-05-01 11:19 18.85680 6.09730 38925 ft 503 kts 16°
2026-05-01 11:19 18.92239 6.12326 38924 ft 503 kts 16°
2026-05-01 11:20 18.98799 6.14924 38926 ft 504 kts 16°
2026-05-01 11:20 19.05367 6.17528 38924 ft 504 kts 16°
2026-05-01 11:21 19.11930 6.20132 38923 ft 504 kts 16°
2026-05-01 11:21 19.18500 6.22741 38929 ft 504 kts 16°
2026-05-01 11:22 19.25075 6.25354 38930 ft 504 kts 15°
2026-05-01 11:22 19.31649 6.27969 38934 ft 505 kts 15°
2026-05-01 11:23 19.38181 6.30570 38931 ft 505 kts 15°
2026-05-01 11:23 19.44767 6.33194 38932 ft 505 kts 15°
2026-05-01 11:24 19.51347 6.35819 38936 ft 505 kts 15°
2026-05-01 11:25 19.60114 6.39319 38936 ft 505 kts 15°
2026-05-01 11:25 19.69988 6.43266 38939 ft 506 kts 15°
2026-05-01 11:26 19.79866 6.47220 38936 ft 505 kts 15°
2026-05-01 11:27 19.86449 6.49858 38939 ft 505 kts 15°
2026-05-01 11:27 19.92993 6.52482 38944 ft 505 kts 15°
2026-05-01 11:28 19.99568 6.55123 38939 ft 505 kts 15°
2026-05-01 11:28 20.06142 6.57761 38938 ft 503 kts 14°
2026-05-01 11:29 20.12854 6.58771 38954 ft 479 kts 348°
2026-05-01 11:29 20.16123 6.58215 39011 ft 472 kts 338°
2026-05-01 11:29 20.22194 6.55735 39206 ft 467 kts 331°
2026-05-01 11:30 20.25195 6.54421 39420 ft 466 kts 331°
2026-05-01 11:30 20.28160 6.53131 39639 ft 466 kts 331°
2026-05-01 11:30 20.31168 6.51835 39829 ft 466 kts 331°
2026-05-01 11:31 20.37231 6.49252 39928 ft 471 kts 331°
2026-05-01 11:31 20.43333 6.46677 39944 ft 471 kts 331°
2026-05-01 11:32 20.49382 6.44132 39951 ft 465 kts 331°
2026-05-01 11:32 20.55388 6.41597 39959 ft 463 kts 331°
2026-05-01 11:33 20.61339 6.39079 39959 ft 462 kts 331°
2026-05-01 11:33 20.67321 6.36545 39965 ft 462 kts 331°
2026-05-01 11:34 20.73313 6.34005 39968 ft 464 kts 330°
2026-05-01 11:34 20.79322 6.31456 39968 ft 465 kts 330°
2026-05-01 11:35 20.85351 6.28897 39974 ft 466 kts 330°
2026-05-01 11:35 20.91397 6.26330 39973 ft 468 kts 330°
2026-05-01 11:36 20.97414 6.23773 39973 ft 468 kts 330°
2026-05-01 11:36 21.03473 6.21195 39974 ft 468 kts 330°
2026-05-01 11:37 21.09531 6.18616 39975 ft 468 kts 330°
2026-05-01 11:37 21.15582 6.16037 39963 ft 468 kts 330°
2026-05-01 11:38 21.21630 6.13458 39974 ft 467 kts 330°
2026-05-01 11:38 21.27662 6.10882 39975 ft 466 kts 330°
2026-05-01 11:39 21.33686 6.08307 39966 ft 466 kts 330°
2026-05-01 11:39 21.39663 6.05751 39974 ft 465 kts 330°
2026-05-01 11:40 21.45677 6.03176 39971 ft 465 kts 330°
2026-05-01 11:40 21.51692 6.00598 39981 ft 465 kts 330°
2026-05-01 11:41 21.57697 5.98022 39975 ft 465 kts 330°
2026-05-01 11:41 21.63704 5.95444 39979 ft 464 kts 329°
2026-05-01 11:42 21.69704 5.92866 39981 ft 464 kts 329°
2026-05-01 11:42 21.75710 5.90283 39983 ft 464 kts 329°
2026-05-01 11:43 21.81675 5.87716 39987 ft 464 kts 329°
2026-05-01 11:43 21.87673 5.85132 39986 ft 464 kts 329°
2026-05-01 11:44 21.96666 5.81253 39986 ft 463 kts 329°
2026-05-01 11:44 22.02651 5.78669 39993 ft 463 kts 329°
2026-05-01 11:45 22.08622 5.76089 39989 ft 462 kts 329°
2026-05-01 11:45 22.14597 5.73504 40001 ft 462 kts 329°
2026-05-01 11:46 22.20526 5.70937 40005 ft 461 kts 329°
2026-05-01 11:46 22.26483 5.68355 40006 ft 461 kts 329°
2026-05-01 11:47 22.32442 5.65770 40001 ft 461 kts 329°
2026-05-01 11:47 22.38398 5.63184 40006 ft 460 kts 329°
2026-05-01 11:48 22.44344 5.60600 40001 ft 459 kts 329°
2026-05-01 11:48 22.50237 5.58037 40032 ft 459 kts 329°
2026-05-01 11:49 22.56165 5.55455 40095 ft 459 kts 329°
2026-05-01 11:49 22.62080 5.52877 40151 ft 458 kts 328°
2026-05-01 11:50 22.67990 5.50299 40199 ft 458 kts 329°
2026-05-01 11:50 22.73900 5.47717 40243 ft 457 kts 328°
2026-05-01 11:51 22.79857 5.45233 40248 ft 462 kts 333°
2026-05-01 11:51 22.86219 5.43701 40243 ft 474 kts 341°
2026-05-01 11:52 22.92713 5.42678 40221 ft 474 kts 342°
2026-05-01 11:52 22.99259 5.41664 40180 ft 474 kts 342°
2026-05-01 11:53 23.05783 5.40620 40138 ft 473 kts 342°
2026-05-01 11:53 23.12294 5.39556 40092 ft 473 kts 341°
2026-05-01 11:54 23.18778 5.38491 40064 ft 473 kts 341°
2026-05-01 11:54 23.25282 5.37421 40063 ft 473 kts 342°
2026-05-01 11:55 23.31802 5.36349 40064 ft 473 kts 342°
2026-05-01 11:55 23.38262 5.35286 40057 ft 472 kts 341°
2026-05-01 11:56 23.44757 5.34217 40058 ft 471 kts 341°
2026-05-01 11:56 23.51232 5.33151 40050 ft 471 kts 341°
2026-05-01 11:57 23.57706 5.32083 40041 ft 470 kts 341°
2026-05-01 11:57 23.64163 5.31016 40044 ft 470 kts 341°
2026-05-01 11:58 23.70632 5.29946 40029 ft 469 kts 341°
2026-05-01 11:59 23.80324 5.28342 40030 ft 469 kts 341°
2026-05-01 11:59 23.86737 5.27279 40021 ft 469 kts 341°
2026-05-01 12:00 23.96420 5.25671 40028 ft 469 kts 341°
2026-05-01 12:01 24.06123 5.24059 40026 ft 470 kts 341°
2026-05-01 12:01 24.12596 5.22982 40028 ft 470 kts 341°
2026-05-01 12:02 24.19028 5.21911 40026 ft 470 kts 341°
2026-05-01 12:02 24.25506 5.20831 40036 ft 471 kts 341°
2026-05-01 12:03 24.31981 5.19750 40039 ft 470 kts 341°
2026-05-01 12:03 24.38449 5.18670 40035 ft 470 kts 341°
2026-05-01 12:04 24.44919 5.17589 40030 ft 468 kts 341°
2026-05-01 12:04 24.51353 5.16513 40021 ft 466 kts 341°
2026-05-01 12:05 24.57747 5.15443 40033 ft 464 kts 341°
2026-05-01 12:05 24.67248 5.13848 40031 ft 461 kts 341°
2026-05-01 12:06 24.73583 5.12783 40025 ft 459 kts 341°
2026-05-01 12:06 24.79896 5.11721 40025 ft 458 kts 341°
2026-05-01 12:07 24.86199 5.10658 40022 ft 457 kts 341°
2026-05-01 12:07 24.92491 5.09598 40024 ft 457 kts 341°
2026-05-01 12:08 24.98736 5.08543 40012 ft 457 kts 341°
2026-05-01 12:08 25.05027 5.07479 40008 ft 457 kts 341°
2026-05-01 12:09 25.11311 5.06417 40015 ft 457 kts 341°
2026-05-01 12:09 25.17595 5.05354 40004 ft 456 kts 341°
2026-05-01 12:10 25.26976 5.03764 39998 ft 456 kts 341°
2026-05-01 12:11 25.36398 5.02165 39999 ft 456 kts 341°
2026-05-01 12:11 25.42678 5.01098 39996 ft 456 kts 341°
2026-05-01 12:12 25.48947 5.00031 39997 ft 456 kts 341°
2026-05-01 12:12 25.55218 4.98963 40000 ft 455 kts 341°
2026-05-01 12:13 25.61479 4.97896 39996 ft 455 kts 341°
2026-05-01 12:13 25.67746 4.96826 39993 ft 455 kts 341°
2026-05-01 12:14 25.72946 4.95938 39991 ft 455 kts 341°
2026-05-01 12:14 25.79206 4.94867 39994 ft 455 kts 341°
2026-05-01 12:15 25.85457 4.93797 39991 ft 454 kts 341°
2026-05-01 12:15 25.91712 4.92725 39993 ft 454 kts 341°
2026-05-01 12:16 25.97956 4.91653 39985 ft 454 kts 341°
2026-05-01 12:16 26.04167 4.90587 39984 ft 454 kts 341°
2026-05-01 12:17 26.10412 4.89513 39977 ft 454 kts 341°
2026-05-01 12:17 26.16662 4.88436 39970 ft 454 kts 342°
2026-05-01 12:18 26.22930 4.87355 39978 ft 456 kts 341°
2026-05-01 12:18 26.29210 4.86273 39978 ft 457 kts 342°
2026-05-01 12:19 26.35505 4.85186 39970 ft 457 kts 342°
2026-05-01 12:19 26.41752 4.84107 39965 ft 457 kts 341°
2026-05-01 12:20 26.48037 4.83020 39964 ft 456 kts 342°
2026-05-01 12:20 26.54310 4.81933 39962 ft 456 kts 342°
2026-05-01 12:21 26.60573 4.80847 39967 ft 455 kts 342°
2026-05-01 12:21 26.66835 4.79760 39955 ft 455 kts 342°
2026-05-01 12:22 26.73088 4.78674 39958 ft 453 kts 342°
2026-05-01 12:22 26.79321 4.77589 39961 ft 453 kts 342°
2026-05-01 12:23 26.85511 4.76509 39963 ft 453 kts 342°
2026-05-01 12:23 26.91756 4.75419 39950 ft 454 kts 342°
2026-05-01 12:24 26.97999 4.74329 39950 ft 455 kts 342°
2026-05-01 12:24 27.04257 4.73235 39951 ft 455 kts 342°
2026-05-01 12:25 27.13662 4.71589 39949 ft 456 kts 342°
2026-05-01 12:26 27.19943 4.70488 39946 ft 457 kts 342°
2026-05-01 12:26 27.29360 4.68835 39945 ft 457 kts 342°
2026-05-01 12:27 27.38741 4.67186 39940 ft 456 kts 342°
2026-05-01 12:28 27.48149 4.65530 39941 ft 455 kts 342°
2026-05-01 12:29 27.57533 4.63874 39937 ft 455 kts 342°
2026-05-01 12:29 27.66898 4.62219 39939 ft 454 kts 342°
2026-05-01 12:30 27.76255 4.60562 39940 ft 453 kts 342°
2026-05-01 12:31 27.82437 4.59465 39935 ft 453 kts 342°
2026-05-01 12:31 27.88669 4.58359 39935 ft 452 kts 342°
2026-05-01 12:32 27.94894 4.57252 39936 ft 452 kts 342°
2026-05-01 12:32 28.04225 4.55592 39933 ft 451 kts 342°
2026-05-01 12:33 28.10393 4.54492 39932 ft 451 kts 342°
2026-05-01 12:33 28.16603 4.53384 39924 ft 451 kts 343°
2026-05-01 12:34 28.22804 4.52276 39929 ft 450 kts 342°
2026-05-01 12:34 28.28961 4.51175 39929 ft 450 kts 343°
2026-05-01 12:35 28.35147 4.50066 39927 ft 450 kts 343°
2026-05-01 12:35 28.41330 4.48958 39924 ft 449 kts 343°
2026-05-01 12:36 28.47512 4.47848 39923 ft 449 kts 343°
2026-05-01 12:36 28.53688 4.46748 39919 ft 449 kts 343°
2026-05-01 12:37 28.59875 4.45670 39913 ft 449 kts 343°
2026-05-01 12:37 28.66047 4.44595 39913 ft 449 kts 343°
2026-05-01 12:38 28.72221 4.43516 39920 ft 448 kts 343°
2026-05-01 12:38 28.78350 4.42442 39919 ft 448 kts 343°
2026-05-01 12:39 28.84522 4.41358 39912 ft 448 kts 343°
2026-05-01 12:39 28.90690 4.40274 39913 ft 447 kts 343°
2026-05-01 12:40 28.96845 4.39191 39913 ft 447 kts 343°
2026-05-01 12:40 29.02987 4.38109 39906 ft 446 kts 343°
2026-05-01 12:41 29.09082 4.37034 39902 ft 445 kts 343°
2026-05-01 12:41 29.15206 4.35952 39907 ft 445 kts 343°
2026-05-01 12:42 29.21320 4.34871 39907 ft 445 kts 343°
2026-05-01 12:42 29.27436 4.33792 39920 ft 443 kts 343°
2026-05-01 12:43 29.33504 4.32715 39906 ft 443 kts 343°
2026-05-01 12:43 29.39625 4.31627 39897 ft 442 kts 343°
2026-05-01 12:44 29.45659 4.30553 39901 ft 442 kts 343°
2026-05-01 12:45 29.57835 4.28386 39904 ft 443 kts 343°
2026-05-01 12:45 29.63924 4.27300 39904 ft 443 kts 343°
2026-05-01 12:46 29.70017 4.26212 39908 ft 443 kts 343°
2026-05-01 12:46 29.76125 4.25132 39909 ft 444 kts 343°
2026-05-01 12:47 29.82232 4.24066 39910 ft 444 kts 343°
2026-05-01 12:47 29.88340 4.22999 39911 ft 444 kts 343°
2026-05-01 12:48 29.94406 4.21936 39911 ft 444 kts 343°
2026-05-01 12:48 30.00522 4.20862 39912 ft 444 kts 343°
2026-05-01 12:49 30.06625 4.19788 39905 ft 443 kts 343°
2026-05-01 12:49 30.12723 4.18714 39916 ft 443 kts 343°
2026-05-01 12:50 30.18814 4.17639 39918 ft 443 kts 343°
2026-05-01 12:50 30.24867 4.16570 39919 ft 442 kts 343°
2026-05-01 12:51 30.30956 4.15493 39921 ft 442 kts 343°
2026-05-01 12:52 30.40097 4.13875 39920 ft 442 kts 343°
2026-05-01 12:52 30.49238 4.12252 39923 ft 442 kts 343°
2026-05-01 12:53 30.58321 4.10638 39933 ft 442 kts 343°
2026-05-01 12:54 30.64399 4.09556 39926 ft 442 kts 344°
2026-05-01 12:54 30.73530 4.07927 39930 ft 442 kts 344°
2026-05-01 12:55 30.82619 4.06303 39931 ft 442 kts 344°
2026-05-01 12:56 30.88696 4.05215 39935 ft 442 kts 344°
2026-05-01 12:56 30.94781 4.04125 39938 ft 442 kts 344°
2026-05-01 12:57 31.00864 4.03033 39939 ft 442 kts 344°
2026-05-01 12:57 31.09997 4.01392 39945 ft 442 kts 344°
2026-05-01 12:58 31.16086 4.00296 39942 ft 443 kts 344°
2026-05-01 12:59 31.25177 3.98657 39951 ft 442 kts 344°
2026-05-01 12:59 31.34307 3.97007 39954 ft 442 kts 344°
2026-05-01 13:00 31.43438 3.95354 39953 ft 443 kts 344°
2026-05-01 13:01 31.52572 3.93698 39954 ft 443 kts 344°
2026-05-01 13:02 31.61663 3.92046 39956 ft 442 kts 344°
2026-05-01 13:07 32.27417 3.79997 40045 ft 441 kts 345°
2026-05-01 13:08 32.33490 3.78875 40051 ft 441 kts 345°
2026-05-01 13:08 32.39635 3.78150 40068 ft 448 kts 352°
2026-05-01 13:09 32.45875 3.78631 40058 ft 456 kts 360°
2026-05-01 13:09 32.52187 3.79583 40046 ft 457 kts
2026-05-01 13:10 32.58490 3.80537 40029 ft 457 kts 360°
2026-05-01 13:10 32.64803 3.81458 40015 ft 457 kts 360°
2026-05-01 13:11 32.71114 3.82365 39989 ft 456 kts 360°
2026-05-01 13:11 32.77377 3.83266 39990 ft 456 kts 360°
2026-05-01 13:12 32.83679 3.84175 39995 ft 456 kts 360°
2026-05-01 13:12 32.89977 3.85085 40000 ft 455 kts 360°
2026-05-01 13:13 32.96272 3.85996 39996 ft 455 kts 360°
2026-05-01 13:13 33.02566 3.86908 39995 ft 455 kts 360°
2026-05-01 13:14 33.08851 3.87818 40001 ft 455 kts 360°
2026-05-01 13:14 33.15097 3.88721 40006 ft 454 kts 360°
2026-05-01 13:15 33.21374 3.89631 40016 ft 454 kts
2026-05-01 13:15 33.27658 3.90544 40011 ft 454 kts
2026-05-01 13:16 33.33925 3.91456 40017 ft 454 kts
2026-05-01 13:16 33.40210 3.92371 40021 ft 454 kts
2026-05-01 13:17 33.52714 3.94197 40025 ft 454 kts
2026-05-01 13:18 33.62135 3.95576 40024 ft 454 kts
2026-05-01 13:18 33.68412 3.96496 40031 ft 454 kts
2026-05-01 13:19 33.74691 3.97418 40033 ft 455 kts
2026-05-01 13:20 33.84124 3.98805 40031 ft 455 kts
2026-05-01 13:20 33.90381 3.99728 40042 ft 456 kts
2026-05-01 13:21 33.99850 4.01127 40035 ft 457 kts
2026-05-01 13:21 34.06173 4.02059 40043 ft 457 kts
2026-05-01 13:22 34.12465 4.02205 40040 ft 449 kts 349°
2026-05-01 13:22 34.18598 4.01256 40045 ft 447 kts 346°
2026-05-01 13:23 34.24760 4.00191 40048 ft 448 kts 346°
2026-05-01 13:23 34.30944 3.99145 40052 ft 449 kts 347°
2026-05-01 13:24 34.37150 3.98117 40057 ft 450 kts 347°
2026-05-01 13:25 34.46451 3.96589 40062 ft 453 kts 347°
2026-05-01 13:25 34.52707 3.95558 40062 ft 453 kts 347°
2026-05-01 13:26 34.58968 3.94524 40065 ft 454 kts 347°
2026-05-01 13:26 34.65233 3.93488 40073 ft 454 kts 347°
2026-05-01 13:27 34.71465 3.92457 40074 ft 455 kts 347°
2026-05-01 13:27 34.80884 3.90894 40071 ft 455 kts 347°
2026-05-01 13:28 34.90310 3.89326 40090 ft 455 kts 347°
2026-05-01 13:29 35.02835 3.87237 40090 ft 456 kts 348°
2026-05-01 13:31 35.21740 3.84071 40100 ft 457 kts 348°
2026-05-01 13:32 35.37538 3.81415 40096 ft 459 kts 348°
2026-05-01 13:33 35.53317 3.78751 40091 ft 459 kts 348°
2026-05-01 13:34 35.65989 3.76604 40096 ft 460 kts 348°
2026-05-01 13:35 35.75508 3.74990 40103 ft 460 kts 348°
2026-05-01 13:36 35.85006 3.73376 40113 ft 462 kts 348°
2026-05-01 13:36 35.94565 3.71748 40123 ft 463 kts 348°
2026-05-01 13:37 36.00954 3.70657 40127 ft 464 kts 348°
2026-05-01 13:37 36.07356 3.69562 40137 ft 464 kts 348°
2026-05-01 13:38 36.16963 3.67917 40139 ft 465 kts 348°
2026-05-01 13:39 36.23367 3.66818 40146 ft 465 kts 348°
2026-05-01 13:39 36.29728 3.65724 40146 ft 464 kts 348°
2026-05-01 13:40 36.36148 3.64618 40151 ft 464 kts 348°
2026-05-01 13:40 36.42546 3.63514 40151 ft 464 kts 348°
2026-05-01 13:41 36.48950 3.62407 40150 ft 464 kts 348°
2026-05-01 13:41 36.55350 3.61299 40161 ft 464 kts 348°
2026-05-01 13:42 36.61754 3.60188 40186 ft 465 kts 348°
2026-05-01 13:42 36.68150 3.59076 40147 ft 467 kts 348°
2026-05-01 13:43 36.74594 3.57956 40159 ft 466 kts 348°
2026-05-01 13:43 36.81104 3.57636 40164 ft 471 kts 359°
2026-05-01 13:44 36.87642 3.58738 40161 ft 475 kts
2026-05-01 13:44 36.94147 3.60242 40167 ft 475 kts
2026-05-01 13:45 37.00617 3.61736 40158 ft 476 kts
2026-05-01 13:45 37.07149 3.63202 40160 ft 476 kts
2026-05-01 13:46 37.13677 3.64649 40164 ft 476 kts
2026-05-01 13:46 37.20208 3.66096 40154 ft 477 kts
2026-05-01 13:47 37.26706 3.67540 40163 ft 477 kts
2026-05-01 13:47 37.33247 3.68997 40153 ft 477 kts
2026-05-01 13:48 37.39794 3.70459 40153 ft 478 kts
2026-05-01 13:48 37.46353 3.71926 40160 ft 478 kts
2026-05-01 13:49 37.52905 3.73393 40155 ft 478 kts
2026-05-01 13:49 37.59461 3.74865 40161 ft 479 kts
2026-05-01 13:50 37.66023 3.76340 40157 ft 479 kts
2026-05-01 13:50 37.72587 3.77818 40156 ft 479 kts
2026-05-01 13:51 37.79118 3.79292 40160 ft 479 kts
2026-05-01 13:51 37.85680 3.80776 40159 ft 479 kts
2026-05-01 13:52 37.92254 3.82264 40163 ft 479 kts
2026-05-01 13:52 37.98819 3.83753 40174 ft 479 kts
2026-05-01 13:53 38.04294 3.84998 40167 ft 480 kts
2026-05-01 13:53 38.15217 3.87486 40167 ft 479 kts
2026-05-01 13:54 38.20682 3.88733 40168 ft 479 kts
2026-05-01 13:54 38.27261 3.90238 40169 ft 479 kts
2026-05-01 13:55 38.33839 3.91745 40171 ft 480 kts
2026-05-01 13:55 38.40413 3.93254 40168 ft 480 kts
2026-05-01 13:56 38.46995 3.94768 40171 ft 481 kts
2026-05-01 13:56 38.53558 3.96140 40167 ft 480 kts
2026-05-01 13:57 38.60189 3.97351 40172 ft 481 kts
2026-05-01 13:57 38.66815 3.98570 40177 ft 481 kts
2026-05-01 13:58 38.73452 3.99823 40173 ft 481 kts
2026-05-01 13:58 38.80085 4.01089 40180 ft 481 kts
2026-05-01 13:59 38.86664 4.02348 40179 ft 481 kts
2026-05-01 13:59 38.93279 4.03614 40179 ft 480 kts
2026-05-01 14:00 38.99890 4.04882 40180 ft 480 kts
2026-05-01 14:00 39.06499 4.06151 40180 ft 480 kts
2026-05-01 14:01 39.13103 4.07422 40187 ft 479 kts
2026-05-01 14:01 39.19702 4.08694 40187 ft 479 kts
2026-05-01 14:02 39.26310 4.09968 40183 ft 479 kts
2026-05-01 14:02 39.32864 4.11231 40195 ft 479 kts
2026-05-01 14:03 39.39467 4.12505 40196 ft 480 kts
2026-05-01 14:03 39.46073 4.13784 40190 ft 480 kts
2026-05-01 14:04 39.52678 4.15065 40195 ft 480 kts
2026-05-01 14:04 39.59291 4.16350 40206 ft 479 kts
2026-05-01 14:05 39.65851 4.17622 40210 ft 479 kts
2026-05-01 14:05 39.72443 4.18894 40211 ft 479 kts
2026-05-01 14:06 39.79075 4.20178 40215 ft 479 kts
2026-05-01 14:06 39.85617 4.21447 40214 ft 478 kts
2026-05-01 14:07 39.92188 4.22877 40214 ft 479 kts
2026-05-01 14:08 40.02018 4.25263 40209 ft 479 kts
2026-05-01 14:08 40.08577 4.26834 40213 ft 479 kts
2026-05-01 14:09 40.15135 4.28388 40213 ft 479 kts
2026-05-01 14:09 40.21691 4.29942 40212 ft 478 kts
2026-05-01 14:10 40.28197 4.31489 40213 ft 478 kts
2026-05-01 14:10 40.34757 4.33053 40216 ft 478 kts
2026-05-01 14:11 40.41307 4.34618 40216 ft 478 kts
2026-05-01 14:11 40.51136 4.36971 40219 ft 478 kts
2026-05-01 14:12 40.57683 4.38523 40220 ft 478 kts
2026-05-01 14:12 40.64232 4.40073 40221 ft 478 kts
2026-05-01 14:13 40.69669 4.41365 40225 ft 478 kts
2026-05-01 14:13 40.77278 4.43178 40226 ft 478 kts
2026-05-01 14:14 40.83823 4.44741 40229 ft 477 kts
2026-05-01 14:14 40.90368 4.46308 40230 ft 477 kts
2026-05-01 14:15 40.96870 4.47893 40230 ft 477 kts
2026-05-01 14:15 41.03401 4.49495 40232 ft 477 kts
2026-05-01 14:16 41.09931 4.51094 40231 ft 477 kts
2026-05-01 14:16 41.16461 4.52687 40234 ft 476 kts
2026-05-01 14:17 41.22983 4.54281 40232 ft 476 kts
2026-05-01 14:17 41.29500 4.55878 40233 ft 476 kts
2026-05-01 14:18 41.36009 4.57476 40238 ft 475 kts
2026-05-01 14:18 41.41409 4.58805 40238 ft 475 kts
2026-05-01 14:19 41.48972 4.60670 40241 ft 474 kts
2026-05-01 14:19 41.55460 4.62273 40242 ft 474 kts
2026-05-01 14:20 41.65187 4.64684 40248 ft 473 kts
2026-05-01 14:21 41.71661 4.66292 40248 ft 473 kts
2026-05-01 14:21 41.78054 4.68430 40268 ft 474 kts 13°
2026-05-01 14:22 41.87540 4.72237 40259 ft 474 kts 14°
2026-05-01 14:22 41.93858 4.74759 40259 ft 473 kts 14°
2026-05-01 14:23 42.00140 4.77242 40261 ft 473 kts 14°
2026-05-01 14:23 42.06456 4.79733 40264 ft 473 kts 14°
2026-05-01 14:24 42.12772 4.82229 40268 ft 473 kts 14°
2026-05-01 14:24 42.19080 4.84730 40264 ft 472 kts 14°
2026-05-01 14:25 42.25382 4.87234 40269 ft 472 kts 14°
2026-05-01 14:25 42.31684 4.89742 40270 ft 472 kts 14°
2026-05-01 14:26 42.41129 4.93512 40277 ft 471 kts 14°
2026-05-01 14:27 42.47380 4.96013 40278 ft 471 kts 14°
2026-05-01 14:27 42.53663 4.98533 40277 ft 471 kts 14°
2026-05-01 14:28 42.63093 5.02325 40281 ft 471 kts 14°
2026-05-01 14:28 42.69388 5.04863 40282 ft 471 kts 14°
2026-05-01 14:29 42.75676 5.07404 40283 ft 471 kts 14°
2026-05-01 14:30 42.88217 5.12486 40285 ft 472 kts 14°
2026-05-01 14:31 42.97668 5.16332 40285 ft 472 kts 14°
2026-05-01 14:31 43.03961 5.18896 40283 ft 472 kts 14°
2026-05-01 14:32 43.10261 5.21441 40276 ft 472 kts 14°
2026-05-01 14:32 43.16561 5.23991 40271 ft 471 kts 14°
2026-05-01 14:33 43.22845 5.26543 40271 ft 471 kts 14°
2026-05-01 14:33 43.29090 5.29085 40268 ft 470 kts 14°
2026-05-01 14:34 43.35409 5.31330 40256 ft 465 kts
2026-05-01 14:34 43.41800 5.30860 40268 ft 459 kts 344°
2026-05-01 14:35 43.47864 5.28194 40268 ft 458 kts 339°
2026-05-01 14:35 43.53850 5.25334 40271 ft 459 kts 339°
2026-05-01 14:36 43.59910 5.22492 40271 ft 460 kts 340°
2026-05-01 14:36 43.65988 5.19695 40266 ft 461 kts 340°
2026-05-01 14:37 43.72092 5.16896 40269 ft 462 kts 340°
2026-05-01 14:37 43.78197 5.14092 40267 ft 462 kts 340°
2026-05-01 14:38 43.84300 5.11280 40267 ft 462 kts 340°
2026-05-01 14:38 43.90359 5.08481 40265 ft 462 kts 340°
2026-05-01 14:39 43.96457 5.05658 40270 ft 462 kts 340°
2026-05-01 14:39 44.02552 5.02830 40264 ft 461 kts 340°
2026-05-01 14:40 44.08639 5.00000 40268 ft 461 kts 340°
2026-05-01 14:40 44.14722 4.97164 40265 ft 461 kts 340°
2026-05-01 14:41 44.20796 4.94329 40265 ft 460 kts 340°
2026-05-01 14:41 44.25840 4.91969 40267 ft 460 kts 340°
2026-05-01 14:42 44.31912 4.89122 40271 ft 460 kts 340°
2026-05-01 14:42 44.37987 4.86266 40271 ft 461 kts 340°
2026-05-01 14:43 44.44064 4.83405 40262 ft 461 kts 340°
2026-05-01 14:43 44.50147 4.80534 40255 ft 461 kts 340°
2026-05-01 14:44 44.56268 4.77835 40268 ft 462 kts 345°
2026-05-01 14:44 44.65811 4.75638 40255 ft 464 kts 349°
2026-05-01 14:45 44.75346 4.73614 40246 ft 463 kts 349°
2026-05-01 14:46 44.81713 4.72206 40248 ft 463 kts 349°
2026-05-01 14:46 44.91256 4.70078 40244 ft 462 kts 349°
2026-05-01 14:47 44.97605 4.68658 40239 ft 462 kts 349°
2026-05-01 14:48 45.07133 4.66522 40244 ft 462 kts 349°
2026-05-01 14:48 45.16675 4.64380 40234 ft 462 kts 349°
2026-05-01 14:49 45.29388 4.61483 40230 ft 463 kts 349°
2026-05-01 14:50 45.42051 4.58569 40224 ft 462 kts 349°
2026-05-01 14:51 45.51590 4.56369 40215 ft 463 kts 348°
2026-05-01 14:52 45.61144 4.54157 40224 ft 464 kts 348°
2026-05-01 14:53 45.70702 4.51936 40212 ft 464 kts 348°
2026-05-01 14:53 45.77079 4.50452 40218 ft 464 kts 348°
2026-05-01 14:54 45.83413 4.48978 40223 ft 464 kts 348°
2026-05-01 14:54 45.89787 4.47491 40226 ft 464 kts 348°
2026-05-01 14:55 45.96157 4.46000 40230 ft 464 kts 348°
2026-05-01 14:55 46.02528 4.44507 40233 ft 464 kts 348°
2026-05-01 14:56 46.08906 4.43006 40230 ft 464 kts 348°
2026-05-01 14:56 46.15279 4.41505 40220 ft 464 kts 348°
2026-05-01 14:57 46.21624 4.40005 40227 ft 465 kts 348°
2026-05-01 14:57 46.31169 4.37530 40203 ft 464 kts 345°
2026-05-01 14:58 46.37452 4.35329 40219 ft 463 kts 343°
2026-05-01 14:58 46.43720 4.33072 40206 ft 464 kts 343°
2026-05-01 14:59 46.50000 4.30841 40206 ft 465 kts 344°
2026-05-01 14:59 46.56257 4.28638 40218 ft 466 kts 344°
2026-05-01 15:00 46.65718 4.25303 40221 ft 466 kts 344°
2026-05-01 15:01 46.72038 4.23067 40231 ft 467 kts 344°
2026-05-01 15:01 46.78367 4.20821 40220 ft 468 kts 344°
2026-05-01 15:02 46.84705 4.18567 40218 ft 469 kts 343°
2026-05-01 15:02 46.91055 4.16303 40233 ft 469 kts 343°
2026-05-01 15:03 46.97400 4.14035 40229 ft 470 kts 343°
2026-05-01 15:03 47.03722 4.11770 40220 ft 471 kts 344°
2026-05-01 15:04 47.09954 4.08936 40224 ft 468 kts 336°
2026-05-01 15:04 47.15992 4.05316 40222 ft 469 kts 335°
2026-05-01 15:05 47.22027 4.01647 40225 ft 469 kts 335°
2026-05-01 15:05 47.28077 3.98022 40222 ft 469 kts 335°
2026-05-01 15:06 47.34098 3.94434 40221 ft 470 kts 335°
2026-05-01 15:06 47.40200 3.90790 40225 ft 470 kts 335°
2026-05-01 15:07 47.46233 3.87174 40216 ft 471 kts 335°
2026-05-01 15:07 47.52310 3.83523 40221 ft 472 kts 336°
2026-05-01 15:08 47.58397 3.79862 40216 ft 473 kts 336°
2026-05-01 15:08 47.64502 3.76202 40216 ft 473 kts 336°
2026-05-01 15:09 47.70619 3.72529 40218 ft 474 kts 336°
2026-05-01 15:09 47.76737 3.68841 40221 ft 475 kts 336°
2026-05-01 15:10 47.82867 3.65137 40220 ft 476 kts 336°
2026-05-01 15:10 47.92034 3.59578 40220 ft 476 kts 336°
2026-05-01 15:11 48.01242 3.53963 40222 ft 477 kts 336°
2026-05-01 15:12 48.07380 3.50182 40215 ft 477 kts 336°
2026-05-01 15:12 48.16587 3.44494 40219 ft 477 kts 336°
2026-05-01 15:14 48.31928 3.34973 40208 ft 477 kts 336°
2026-05-01 15:14 48.41134 3.29231 40206 ft 477 kts 336°
2026-05-01 15:15 48.53367 3.21437 40209 ft 477 kts 335°
2026-05-01 15:16 48.65560 3.13619 40201 ft 478 kts 336°
2026-05-01 15:18 48.80877 3.03747 40204 ft 478 kts 335°
2026-05-01 15:19 48.92672 2.94397 40195 ft 477 kts 328°
2026-05-01 15:19 49.01235 2.86754 40190 ft 478 kts 328°
2026-05-01 15:20 49.09861 2.79138 40187 ft 478 kts 329°
2026-05-01 15:21 49.15619 2.74051 40188 ft 478 kts 329°
2026-05-01 15:21 49.21374 2.68951 40189 ft 478 kts 328°
2026-05-01 15:22 49.30010 2.61269 40186 ft 479 kts 328°
2026-05-01 15:22 49.35778 2.56120 40189 ft 479 kts 328°
2026-05-01 15:23 49.41538 2.50963 40191 ft 479 kts 328°
2026-05-01 15:23 49.47296 2.45795 40190 ft 479 kts 328°
2026-05-01 15:24 49.52125 2.41458 40185 ft 480 kts 329°
2026-05-01 15:24 49.57976 2.36460 40191 ft 480 kts 330°
2026-05-01 15:25 49.63858 2.31549 40188 ft 480 kts 330°
2026-05-01 15:25 49.69739 2.26595 40189 ft 481 kts 330°
2026-05-01 15:26 49.75598 2.21616 40188 ft 481 kts 330°
2026-05-01 15:26 49.81467 2.16606 40186 ft 481 kts 330°
2026-05-01 15:27 49.87323 2.11595 40188 ft 481 kts 330°
2026-05-01 15:28 49.96077 2.04080 40187 ft 481 kts 330°
2026-05-01 15:28 50.01938 1.99030 40187 ft 482 kts 330°
2026-05-01 15:29 50.07796 1.93970 39925 ft 474 kts 330°
2026-05-01 15:29 50.10669 1.91484 39330 ft 473 kts 330°
2026-05-01 15:29 50.16402 1.86196 37296 ft 484 kts 323°
2026-05-01 15:30 50.21535 1.79389 35821 ft 481 kts 314°
2026-05-01 15:31 50.30977 1.64775 34825 ft 485 kts 314°
2026-05-01 15:31 50.35800 1.57381 34220 ft 485 kts 314°
2026-05-01 15:32 50.40588 1.50037 33019 ft 476 kts 314°
2026-05-01 15:32 50.45277 1.42819 31875 ft 468 kts 314°
2026-05-01 15:33 50.52042 1.32117 30200 ft 456 kts 310°
2026-05-01 15:34 50.58498 1.20981 27454 ft 462 kts 311°